Regional Weather Roundup
Issued by NWS Newport/Morehead, NC

Current Version | Previous Version | Text Only | Print | Product List | Glossary On
Versions: 1 2 3 4 5 6 7 8 9 10 11 12 13 14 15 16 17 18 19 20 21 22 23 24 25 26 27 28 29 30 31 32 33 34 35 36 37 38 39 40 41 42 43 44 45 46 47 48 49 50
000 ASUS42 KMHX 222225 RWRMHX WEATHER ROUNDUP FOR EASTERN NORTH CAROLINA NATIONAL WEATHER SERVICE NEWPORT/MOREHEAD CITY NC 600 PM EDT THU JUN 22 2017 NOTE: "FAIR" INDICATES FEW OR NO CLOUDS BELOW 12,000 FEET WITH NO SIGNIFICANT WEATHER AND/OR OBSTRUCTIONS TO VISIBILITY NCZ015>017-031-032-045>047-102-103-222300- NORTH COAST CITY SKY/WX TMP DP RH WIND PRES REMARKS EDENTON PTSUNNY 85 74 68 SW12 30.03F ELIZABETH CITY PTSUNNY 86 76 71 SW12 30.01S KITTY HAWK PTCLDY 85 73 66 CALM 30.01S MANTEO MOSUNNY 86 73 64 W13 30.02F $$ NCZ045>047-081-094-103-104-222300- CENTRAL COAST CITY SKY/WX TMP DP RH WIND PRES REMARKS FRISCO PTSUNNY 81 76 84 SW10 30.05F $$ NCZ095-097-098-100-101-222300- SOUTHERN COAST CITY SKY/WX TMP DP RH WIND PRES REMARKS BEAUFORT CLOUDY 81 79 94 W8 30.07S CEDAR ISLAND NOT AVBL JACKSONVILLE LGT RAIN 82 76 81 NW6 30.07S PINEY ISLAND CLOUDY N/A N/A N/A SW7 30.06S WILMINGTON CLOUDY 79 76 90 CALM 30.07F $$ NCZ011>013-027>030-043-044-078>080-089-090>093-098-222300- COASTAL PLAIN CITY SKY/WX TMP DP RH WIND PRES REMARKS AHOSKIE N/A 81 74 79 CALM 30.02F CLINTON CLOUDY 76 76 99 CALM 30.07F ELIZABETHTOWN NOT AVBL GOLDSBORO PTSUNNY 80 80 100 W9 30.04F GREENVILLE CLOUDY 81 75 83 W6 30.06F HAVELOCK CLOUDY 82 74 76 W8 30.08S KENANSVILLE CLOUDY 79 77 94 CALM 30.07S FOG KINSTON LGT RAIN 81 75 83 SW5 30.06F NEW BERN LGT RAIN 80 77 90 W6 30.08S FOG RICHLANDS CLOUDY 79 77 94 S5 30.07F ROCKY MOUNT LGT RAIN 80 74 81 SW8 30.05F WASHINGTON CLOUDY 81 76 85 SW6 30.05F WHITEVILLE PTSUNNY 80 75 85 NE3 30.07S $$ AMZ130-135-150-152-154-156-158-170-250-252-270-ANZ085-086-088-633-658-670-222300- MARINE OBSERVATIONS STATION/POSITION TIME TEMP WIND PRES WAVE SWELL AIR SEA DIR/SP/G HT/PER HT/PER (UTC) (F) (DEG/KT/KT) (MB) (FT/S) (FT/S) CHESAPEAKE LIGHT NOT AVBL 64 E VA BEACH 2150 74 73 210/ 8/ 8 1016.7 2/ 9 2/ 9 DUCK 2200 85 64 250/ 9/ 12 1015.9 2 E DUCK NOT AVBL OREGON INLET 2200 82 82 200/ 16/ 19 1016.6 13E OREGON INLT 2148 73 N/A 2/ 7 2/ 7 HATTERAS CG 2200 80 79 230/ 9/ 14 1017.3 DIAMOND BUOY 2150 80 81 240/ 14/ 17 1017.4 2/ 7 2/ 7 CAPE LOOKOUT 2200 80 250/ 8/ 11 1017.9 BEAUFORT LAB 2200 80 78 260/ 4/ 11 1017.6 30 SE NEW RVR IN 2208 80 81 250/ 8/ 12 1018.3 30 SE NEW RVR IN 2213 81 N/A 3/ 8 27 SE WRIGHTSVLE 2208 79 80 260/ 6/ 8 1018.1 5 SE WRIGHTSVLE 2208 80 79 250/ 2/ 6 1018.0 225 S CAPE HAT 2050 81 83 220/ 10/ 12 1019.6 4/ 8 5/ 8 41 SE CHARLESTON 2210 81 81 180/ 12/ 14 1018.0 $$

USA.gov is the U.S. government's official web portal to all federal, state and local government web resources and services.